Tracking 20241 objects as of 27-Jan-2020
HD Live streaming from Space Station
objects crossing your sky now

FENGYUN 1C DEB

Track FENGYUN 1C DEB now!
10-day predictions


NORAD ID: 30867
Int'l Code: 1999-025AXD
Perigee: 823.3 km
Apogee: 916.6 km
Inclination: 97.9 °
Period: 102.2 minutes
Semi major axis: 7240 km
RCS: 0.0166 m2 (small)
Launch date: May 10, 1999
Source: People's Republic of China (PRC)
Launch site: Taiyaun Space Center, China (TSC)

Note: This is SATELLITE DEBRIS
aabbcc
Your satellite tracking list
Your tracking list is empty




NASA's NSSDC Master Catalog

Two Line Element Set (TLE):
1 30867U 99025AXD 20026.84813001  .00000483  00000-0  29343-3 0  9993
2 30867  97.8696 160.3549 0064439 153.4107 358.6097 14.08987561662287
Source of the keplerian elements: AFSPC